{"data":{"norad_id":59267,"epoch":"2026-05-24T19:44:07.564128Z","epoch_age_seconds":101050,"freshness":"FRESH","line1":"1 59267U 24050P   26144.82230977  .00000829  00000+0  40105-4 0  9997","line2":"2 59267  53.1600 187.4471 0001180  85.8396 274.2740 15.30192433122201","mean_motion":15.30192433,"eccentricity":0.000118,"inclination_deg":53.16,"raan_deg":187.4471,"arg_perigee_deg":85.8396,"mean_anomaly_deg":274.274,"bstar":4.0105e-5,"rev_number":12220,"period_min":94.105811069581,"perigee_km":474.42896500021,"apogee_km":476.04636142073,"semimajor_km":6853.3746632105,"source":"CELESTRAK","updated_at":"2026-05-25T13:38:18.876313Z"}}